Regional Weather Roundup
Issued by NWS

Home | Current Version | Previous Version | Text Only | Print | Product List | Glossary On
Versions: 1 2 3 4 5 6 7 8 9 10 11 12 13 14 15 16 17 18 19 20 21 22 23 24 25 26 27 28 29 30 31 32 33 34 35 36 37 38 39 40 41 42 43 44 45 46 47 48 49 50
000
ASUS43 KOAX 070010
RWRNE

WEATHER ROUNDUP FOR NEBRASKA
NATIONAL WEATHER SERVICE OMAHA NE
700 PM CDT FRI MAY 06 2016

NOTES: SATELLITE DATA IS BEING USED TO AUGMENT CLOUD COVER ABOVE
       12000 FEET.
       "FAIR" INDICATES FEW OR NO CLOUDS BELOW 12,000 FEET WITH NO
       SIGNIFICANT WEATHER AND/OR OBSTRUCTIONS TO VISIBILITY.

  * THESE STATIONS DO NOT REPORT WEATHER SUCH AS RAIN...SNOW OR FOG.

NEZ001>004-019>022-054>056-070100-
NEBRASKA PANHANDLE

CITY           SKY/WX    TMP DP  RH WIND       PRES   REMARKS
SCOTTSBLUFF    MOSUNNY   77  47  34 E16       29.87R
6HR MIN TEMP:  72; 6HR MAX TEMP:  81;

ALLIANCE       CLOUDY    75  47  36 SE9       29.87S
6HR MIN TEMP:  74; 6HR MAX TEMP:  82;

CHADRON        CLOUDY    72  51  47 NE21G26   29.91R
6HR MIN TEMP:  72; 6HR MAX TEMP:  85;

KIMBALL        CLOUDY    74  47  39 E7        29.89R
SIDNEY         SUNNY     76  49  38 E10       29.87R
6HR MIN TEMP:  73; 6HR MAX TEMP:  84;

$$

NEZ057>060-069>072-079>082-070100-
SOUTHWEST NEBRASKA

CITY           SKY/WX    TMP DP  RH WIND       PRES   REMARKS
NORTH PLATTE   SUNNY     79  51  37 SE9       29.84S
6HR MIN TEMP:  78; 6HR MAX TEMP:  82;

IMPERIAL       CLOUDY    84  40  21 S18G29    29.82S
6HR MIN TEMP:  76; 6HR MAX TEMP:  87;

MCCOOK         MOSUNNY   79  53  40 SE10      29.82F
6HR MIN TEMP:  76; 6HR MAX TEMP:  85;

OGALLALA       MOSUNNY   80  46  30 E10       29.83F
$$

NEZ005>010-023>029-035>040-094-070100-
NORTH CENTRAL NEBRASKA

CITY           SKY/WX    TMP DP  RH WIND       PRES   REMARKS
AINSWORTH      MOSUNNY   79  55  43 S5        29.85S
BROKEN BOW     MOSUNNY   80  54  40 S12       29.86F
6HR MIN TEMP:  78; 6HR MAX TEMP:  84;

O`NEILL        MOSUNNY   79  52  39 S8        29.84S
ORD            CLOUDY    76  54  46 S9        29.85S
6HR MIN TEMP:   2; 6HR MAX TEMP:  83;

THEDFORD       PTSUNNY   83  47  27 S13       29.86F
$$

NEZ041-046>049-061>064-073>077-083>087-070100-
SOUTH CENTRAL NEBRASKA

CITY           SKY/WX    TMP DP  RH WIND       PRES   REMARKS
GRAND ISLAND   CLOUDY    78  51  38 S12       29.87S
6HR MIN TEMP:  78; 6HR MAX TEMP:  84;

AURORA         MOSUNNY   79  47  32 S13G20    29.88S
HASTINGS       PTSUNNY   81  50  33 S10G23    29.87F
6HR MIN TEMP:  79; 6HR MAX TEMP:  82;

HEBRON         MOSUNNY   80  45  28 S12       29.89F
HOLDREGE       SUNNY     82  46  28 S15G21    29.86S
KEARNEY *      SUNNY     81  52  36 S14       29.87F
YORK           CLOUDY    81  46  30 SW17      29.88S
$$

NEZ011>018-030>034-042>045-070100-
NORTHEAST NEBRASKA

CITY           SKY/WX    TMP DP  RH WIND       PRES   REMARKS
NORFOLK        SUNNY     82  48  30 S10       29.84R
6HR MIN TEMP:  82; 6HR MAX TEMP:  86;

ALBION         CLOUDY    80  49  33 S15       29.86S
BLAIR          SUNNY     85  45  24 SW13      29.85F
COLUMBUS *     MOSUNNY   82  46  28 S10       29.86F
FREMONT        SUNNY     82  44  26 S10G21    29.86S
TEKAMAH        SUNNY     85  46  25 S14       29.82F
6HR MIN TEMP:  84; 6HR MAX TEMP:  88;

WAYNE          SUNNY     82  50  32 SW14G20   29.84S
$$

NEZ050>053-065>068-078-088>093-070100-
SOUTHEAST NEBRASKA

CITY           SKY/WX    TMP DP  RH WIND       PRES   REMARKS
LINCOLN        SUNNY     82  43  25 S14       29.87F
6HR MIN TEMP:  82; 6HR MAX TEMP:  89;

OMAHA EPPLEY   PTSUNNY   86  43  22 S12       29.84S
6HR MIN TEMP:  84; 6HR MAX TEMP:  88;

BEATRICE       CLOUDY    79  47  32 S12       29.89F
FALLS CITY     SUNNY     82  48  30 S10       29.89F
6HR MIN TEMP:  81; 6HR MAX TEMP:  85;

NEBRASKA CITY  SUNNY     82  40  22 SW16      29.88F
PLATTSMOUTH    SUNNY     85  41  21 S14       29.87F
$$

NEZ044-045-051>053-067-070100-
OMAHA AREA

CITY           SKY/WX    TMP DP  RH WIND       PRES   REMARKS
OMAHA EPPLEY   PTSUNNY   86  43  22 S12       29.84S
6HR MIN TEMP:  84; 6HR MAX TEMP:  88;

BLAIR          SUNNY     85  45  24 SW13      29.85F
FREMONT        SUNNY     82  44  26 S10G21    29.86S
MILLARD        SUNNY     85  44  24 SW10      29.86S
OFFUTT AFB     SUNNY     84  43  23 SW12      29.85F
PLATTSMOUTH    SUNNY     85  41  21 S14       29.87F
WAHOO          FAIR      84  40  21 SW14G20   29.86S
$$




USA.gov is the U.S. government's official web portal to all federal, state and local government web resources and services.